Location: Nebula Knoll Observatory
(43.6666°N, 71.0000°W)
Time: 02:47:22
(UTC-05:00)

Daily predictions for brighter satellites

Satellite Brightness Start Highest point End
(mag) Time Altitude Azimuth Time Altitude Azimuth Time Altitude Azimuth
Cosmos 2369 Rocket 4.3 03:32:39 19° NE 03:33:37 20° NE 03:37:46 10° E
Cosmos 1943 Rocket 4.4 04:09:10 12° N 04:12:16 19° NE 04:16:03 10° E
Cosmos 2056 Rocket 3.7 04:19:12 64° ENE 04:19:12 64° ENE 04:24:11 10° SSE
Cosmos 1238 Rocket 4.4 04:24:54 41° S 04:24:54 41° S 04:28:48 10° S
SL-16 R/B 3.7 04:27:06 24° N 04:27:06 24° N 04:29:29 10° NNE
Lacrosse 5 rocket 4.1 04:26:51 11° NNE 04:26:51 11° NNE 04:27:19 10° NNE
USA 215 4.0 04:20:35 10° ENE 04:26:54 50° SE 04:32:45 12° SSW
Lacrosse 4 Rocket 4.1 04:26:26 10° NNE 04:27:50 12° NE 04:29:25 10° ENE
ADEOS II 4.3 04:24:25 10° N 04:25:04 14° N 04:25:04 14° N
Cosmos 1624 Rocket 3.9 04:32:25 87° NNW 04:32:31 90° SW 04:37:50 10° SSE
COSMO-SKYMED 1 3.5 04:28:37 10° SE 04:32:45 46° ENE 04:34:13 33° NNE
Cosmos 44 Rocket 3.8 04:34:58 30° S 04:37:26 63° ESE 04:42:30 10° NE
Cosmos 1371 Rocket 4.1 04:38:36 58° SSW 04:38:36 58° SSW 04:43:00 10° S
CENTAUR R/B 3.4 04:41:19 33° NNW 04:41:19 33° NNW 04:47:03 10° NNE
USA 32 4.3 04:43:48 50° SW 04:43:48 50° SW 04:47:48 10° S
Cosmos 1602 4.3 04:39:57 10° S 04:43:49 57° E 04:47:43 10° NNE
SL-08 ROCKET BODY 4.2 04:39:46 10° SSW 04:45:40 64° W 04:51:31 10° N
Lacrosse 5 1.9 04:44:47 48° SSW 04:46:10 76° SE 04:51:17 10° NE
Okean 1-7 Rocket 4.2 04:43:57 23° N 04:46:28 54° ENE 04:50:45 10° SSE
Cosmos 192 4.3 04:43:07 10° SSW 04:48:01 79° ESE 04:52:56 10° NNE
Cosmos 1300 Rocket 3.5 04:44:58 10° S 04:49:23 84° E 04:53:49 10° N
Nadezhda 3 Rocket 4.2 04:45:25 10° N 04:51:49 75° E 04:58:11 10° SSE
Meteor 1-11 Rocket 4.1 04:46:51 10° S 04:52:38 67° E 04:58:19 10° NNE
Cosmos 2237 Rocket 4.4 04:56:10 10° N 04:56:10 10° N 04:56:17 10° N
Meteor 1-28 Rocket 4.4 04:52:57 10° SE 04:56:32 41° ENE 04:59:24 15° N
Meteor 1-13 Rocket 4.2 04:56:15 12° NNW 05:01:51 79° W 05:07:46 10° S
SKYMED 3 4.4 04:58:25 10° SSE 05:02:45 84° WSW 05:04:36 34° NNW
Cosmos 1452 Rocket 3.6 05:04:23 18° NNW 05:08:20 74° ENE 05:13:36 10° SSE
Meteor 2-13 Rocket 4.4 05:04:35 10° S 05:10:45 86° W 05:16:57 10° N
Cosmos 2074 Rocket 4.3 05:05:22 10° SW 05:11:17 42° WNW 05:17:12 10° N
Tiangong 2 1.2 05:13:30 63° S 05:13:30 63° S 05:16:34 10° ESE
Meteor 2-4 Rocket 3.7 05:09:45 10° N 05:15:18 82° E 05:20:59 10° SSE
Cosmos 2369 Rocket 2.1 05:14:29 22° NNW 05:18:18 76° WSW 05:23:59 10° SSE
Cosmos 2341 Rocket 4.0 05:13:14 10° S 05:19:31 88° E 05:25:49 10° N
SKYMED 2 3.6 05:16:34 10° S 05:20:48 53° W 05:22:50 28° NW
Cosmos 1603 4.0 05:19:00 23° WSW 05:22:04 42° WNW 05:27:27 10° NNE
ATLAS 5 CENTAUR R/B 4.4 05:21:22 10° N 05:23:23 12° NNE 05:25:27 10° NE
Okean 2 3.9 05:24:03 10° N 05:28:13 61° E 05:32:19 10° SSE
NOAA 6 4.2 05:23:37 10° N 05:28:30 46° WNW 05:33:22 10° SW
Kosmos-1675 4.5 05:25:48 10° SSW 05:28:37 64° ESE 05:39:23 10° NE
Cosmos 44 3.4 05:26:46 10° SW 05:32:09 79° NW 05:37:20 10° NNE
SL-23 DEB 3.5 05:33:08 34° NW 05:34:19 64° NNE 05:37:53 10° ESE
SL-24 R/B 4.4 05:33:38 10° N 05:39:06 76° WNW 05:43:42 10° SSW
Cosmos 1536 3.0 05:37:45 10° SSW 05:41:37 48° WNW 05:45:32 10° N
USA 129 1.5 05:40:18 10° S 05:42:26 83° W 05:42:55 46° NNW
Cosmos 1025 Rocket 3.1 05:38:16 10° NNW 05:42:34 56° W 05:46:49 10° S
CZ-4 R/B 2.2 05:38:48 10° NNE 05:42:40 51° E 05:46:28 10° S
USA 229 DEB 3.8 05:35:59 10° SSW 05:42:51 80° ESE 05:49:51 10° NE
USA 229 3.9 05:36:05 10° SSW 05:42:57 80° SE 05:49:56 10° NE
Cosmos 1943 3.2 05:39:27 10° SW 05:44:59 58° WNW 05:50:35 10° NNE
Cosmos 2154 Rocket 4.2 05:39:32 10° SSW 05:45:27 45° WNW 05:51:24 10° N
YAOGAN 1 3.9 05:44:58 10° NNE 05:49:07 43° E 05:53:14 10° S
Cosmos 1269 Rocket 4.3 05:44:02 10° S 05:49:17 73° ESE 05:54:36 10° NNE
Cosmos 1633 3.7 05:48:42 10° SW 05:51:36 22° WNW 05:54:31 10° NNW
IRS-1A Rocket 4.4 05:49:01 10° NNE 05:54:46 89° ESE 06:00:35 10° SSW
Meteor 2-8 Rocket 4.4 05:49:10 10° NNW 05:55:19 74° W 06:01:27 10° S
Cosmos 1943 Rocket 2.1 05:51:09 10° NNW 05:56:41 79° WSW 06:02:10 10° SSE
SJ-12 4.3 05:53:22 10° NNE 05:57:32 70° ESE 06:01:40 10° S
Abrixas rocket 2.5 05:55:53 19° W 05:58:01 51° NNW 06:01:19 10° ENE
Cosmos 468 4.5 05:54:09 10° SSW 05:59:24 69° WNW 06:04:42 10° NNE
Cosmos 1420 Rocket 4.0 05:56:22 10° NNW 06:01:35 65° WSW 06:06:43 10° S
Okean 1 Rocket 4.2 05:59:47 10° WSW 06:03:08 21° WNW 06:06:29 10° NNW
Cosmos 1544 Rocket 3.5 06:00:51 10° SSW 06:05:11 72° W 06:09:36 10° N
CZ-3 R/B 3.5 06:01:16 10° SW 06:05:14 14° SSW 06:07:42 10° SSE
Lacrosse 5 rocket 3.6 06:02:57 10° NNW 06:05:38 16° NNE 06:08:23 10° NE
Lacrosse 4 Rocket 1.4 06:03:06 10° NNW 06:07:16 84° ENE 06:11:20 10° SSE
COSMO-SKYMED 1 4.1 06:06:20 10° SW 06:09:10 17° W 06:11:25 12° WNW
USA 215 3.4 06:03:36 10° NE 06:09:58 57° NNW 06:16:18 10° WSW
Ariane Rocket 3.6 06:06:56 10° N 06:11:29 34° WNW 06:16:01 10° SW
CZ-2C R/B 2.6 06:09:29 10° NNE 06:14:42 89° ESE 06:19:45 10° SSW
SL-8 Rocket 4.1 06:08:37 10° SSW 06:14:46 58° WNW 06:20:54 10° N
SPOT 3 Rocket 3.7 06:09:39 10° NNE 06:14:50 79° ESE 06:19:58 10° SSW
Cosmos 1048 Rocket 3.9 06:11:50 10° SSW 06:16:57 72° WNW 06:22:10 10° NNE
Cosmos 1656 Rocket 3.9 06:13:39 10° NNW 06:19:20 76° ENE 06:25:01 10° SSE
Cosmos 44 Rocket 4.5 06:15:12 10° W 06:19:23 24° NW 06:23:32 10° NNE
AQUARIUS 4.1 06:18:27 10° N 06:22:58 76° WNW 06:27:27 10° SSW
Meteor 1-29 2.8 06:21:26 10° S 06:24:48 74° WSW 06:28:12 10° NNW
Cosmos 1500 3.3 06:21:53 10° S 06:25:37 80° E 06:29:24 10° N
Cosmos 1975 2.8 06:22:45 10° S 06:26:51 79° W 06:30:59 10° N
Cosmos 2366 rocket 4.1 06:21:02 10° SSW 06:27:16 64° W 06:33:36 10° N
Cosmos 1066 Rocket 4.4 06:22:50 10° N 06:28:15 77° E 06:33:44 10° SSE
Cosmos 1892 Rocket 4.3 06:24:26 10° NNW 06:28:26 32° W 06:32:25 10° SSW
Lacrosse 5 2.8 06:25:07 10° W 06:29:35 30° NNW 06:34:04 10° NE
MSX 4.1 06:26:32 10° NNE 06:32:18 77° ESE 06:38:02 10° S
Helios 1B rocket 2.8 06:29:00 10° S 06:33:00 48° W 06:37:03 10° NNW
CENTAUR R/B 4.4 06:29:37 10° NW 06:33:49 16° N 06:38:17 10° NNE
Cosmos 405 Rocket 3.4 06:31:07 10° N 06:34:53 55° ENE 06:38:32 10° SSE
Cosmos 2218 Rocket 4.3 06:29:29 10° SSW 06:35:39 49° WNW 06:41:51 10° N
